User: anonymous   Login
Location: Bieg
(49.3499°N, 10.3835°E)
Time: 16:59:56
(UTC+00:00)
Language:

Cosmos 1242 Rocket - Orbit

View from above orbital plane
View from above orbital plane
View from above satellite
View from above satellite

Ground track
Ground track

The orbit data is extracted from the following two-line orbital elements,

1 12155U 81008B   24200.46839331  .00211733  15064-4  71319-3 0  9997
2 12155  81.1380 192.0038 0006763  92.8989 267.3053 15.89903429390296
Epoch (UTC): 18 July 2024 11:14:29
Eccentricity: 0.0006763
inclination: 81.1380°
perigee height: 298 km
apogee height: 307 km
right ascension of ascending node: 192.0038°
argument of perigee: 92.8989°
revolutions per day: 15.89903429
mean anomaly at epoch: 267.3053°
orbit number at epoch: 39029

The dashed part of the orbit path shows where the satellite is in the earth's shadow,  

DLR